MDT,Max TemperatureF,Mean TemperatureF,Min TemperatureF,Max Dew PointF,MeanDew PointF,Min DewpointF,Max Humidity, Mean Humidity, Min Humidity, Max Sea Level PressureIn, Mean Sea Level PressureIn, Min Sea Level PressureIn, Max VisibilityMiles, Mean VisibilityMiles, Min VisibilityMiles, Max Wind SpeedMPH, Mean Wind SpeedMPH, Max Gust SpeedMPH,PrecipitationIn, CloudCover, Events, WindDirDegrees
2012-9-1,89,77,64,54,45,36,59,35,9,29.89,29.79,29.73,10,10,10,35,12,43,T,3,Rain,246
2012-9-2,84,71,58,49,40,25,58,33,9,30.02,29.90,29.84,10,10,10,17,8,24,T,1,,236
2012-9-3,85,71,57,28,22,17,29,15,5,30.02,29.93,29.86,10,10,9,21,9,29,0.00,0,,277
2012-9-4,80,66,51,38,30,20,51,28,8,30.14,29.99,29.89,10,10,10,30,9,40,0.00,1,,287
2012-9-5,82,63,43,39,34,23,71,36,9,30.12,29.97,29.82,10,10,10,15,9,20,0.00,0,,228
2012-9-6,68,60,52,42,39,32,57,44,28,30.20,30.07,29.91,10,10,10,17,7,26,0.00,3,,37
2012-9-7,78,62,46,43,39,33,73,44,11,30.29,30.23,30.18,10,10,10,13,5,18,0.00,1,,229
2012-9-8,82,66,50,38,32,26,54,29,7,30.28,30.18,30.05,10,10,10,15,7,18,0.00,0,,196
2012-9-9,90,72,53,37,30,24,45,21,4,30.02,29.84,29.65,10,10,10,17,7,22,0.00,0,,218
2012-9-10,91,77,63,39,34,24,35,18,9,29.75,29.66,29.56,10,10,10,23,9,23,0.00,2,,316
2012-9-11,72,61,50,31,23,8,48,25,4,30.16,29.98,29.79,10,10,10,21,8,28,0.00,0,,24
2012-9-12,67,53,39,25,16,12,40,21,7,30.33,30.27,30.16,10,10,10,12,5,20,0.00,1,,215
2012-9-13,76,60,43,27,22,16,40,21,7,30.41,30.34,30.30,10,10,10,17,8,20,0.00,0,,195
2012-9-14,86,64,42,31,26,22,53,23,5,30.30,30.14,30.01,10,10,10,15,7,15,0.00,0,,222
2012-9-15,87,70,53,32,25,19,28,18,4,30.08,29.99,29.91,10,10,10,21,10,21,0.00,1,,229
2012-9-16,70,60,49,40,33,26,61,34,16,30.21,30.10,29.98,10,10,10,20,10,25,T,2,Rain,22
2012-9-17,71,56,40,38,34,31,76,45,15,30.23,30.14,30.04,10,10,10,15,5,17,0.00,0,,223
2012-9-18,89,71,53,36,31,27,43,24,5,30.04,29.94,29.80,10,10,10,25,16,30,0.00,0,,255
2012-9-19,75,64,52,36,31,23,41,27,13,30.19,30.07,29.92,10,10,10,23,6,26,0.00,0,,130
2012-9-20,83,68,52,36,32,28,41,26,9,30.13,30.06,29.99,10,10,10,20,9,26,0.00,0,,254
2012-9-21,80,65,49,36,34,31,52,31,12,30.13,30.09,30.05,10,10,10,16,8,21,0.00,0,,158
2012-9-22,80,64,48,38,34,31,53,32,11,30.17,30.09,30.02,10,10,10,16,7,22,0.00,0,,36
2012-9-23,77,63,48,38,34,30,52,34,15,30.09,30.04,30.00,10,10,10,10,6,15,0.00,0,,354
2012-9-24,79,65,51,37,33,29,50,29,11,30.04,29.93,29.85,10,10,10,12,5,14,0.00,0,,211
2012-9-25,80,65,50,39,33,29,46,29,12,29.97,29.88,29.84,10,10,10,13,6,13,0.00,1,,209
2012-9-26,72,64,56,45,38,30,62,38,18,30.13,29.99,29.90,10,10,10,16,8,21,0.00,4,Thunderstorm,16
2012-9-27,72,60,47,45,42,41,77,53,23,30.17,30.09,30.04,10,10,10,10,5,14,0.00,1,,13
2012-9-28,79,63,46,44,40,37,69,44,17,30.06,29.96,29.86,10,10,10,22,8,28,0.00,1,,207
2012-9-29,81,68,55,43,39,37,53,33,13,30.04,29.95,29.85,10,10,10,22,11,26,0.00,2,,259
2012-9-30,78,65,52,42,37,34,53,35,13,30.27,30.11,30.02,10,10,10,23,12,29,0.00,3,,306